Regional Weather Roundup
Issued by NWS Newport/Morehead, NC

Current Version | Previous Version | Graphics & Text | Print | Product List | Glossary Off
Versions: 1 2 3 4 5 6 7 8 9 10 11 12 13 14 15 16 17 18 19 20 21 22 23 24 25 26 27 28 29 30 31 32 33 34 35 36 37 38 39 40 41 42 43 44 45 46 47 48 49 50

000
ASUS42 KMHX 152010
RWRMHX
WEATHER ROUNDUP FOR EASTERN NORTH CAROLINA
NATIONAL WEATHER SERVICE NEWPORT/MOREHEAD CITY NC
400 PM EDT TUE APR 15 2014

NOTE: "FAIR" INDICATES FEW OR NO CLOUDS BELOW 12,000 FEET
WITH NO SIGNIFICANT WEATHER AND/OR OBSTRUCTIONS TO VISIBILITY

NCZ015>017-031-032-045>047-102-103-152100-
NORTH COAST

CITY           SKY/WX    TMP DP  RH WIND       PRES   REMARKS
EDENTON        CLOUDY    73  66  78 S14       29.67F
ELIZABETH CITY CLOUDY    73  65  75 S9        29.67F
KITTY HAWK     CLOUDY    70  65  85 S9G16     29.69F
MANTEO         CLOUDY    70  64  82 SW20      29.72F

$$

NCZ045>047-081-094-103-104-152100-
CENTRAL COAST

CITY           SKY/WX    TMP DP  RH WIND       PRES   REMARKS
FRISCO         CLOUDY    68  65  90 SW13      29.76F FOG
SWANQUARTER      N/A     72 N/A N/A S12G21    29.68F

$$

NCZ095-097-098-100-101-152100-
SOUTHERN COAST

CITY           SKY/WX    TMP DP  RH WIND       PRES   REMARKS
BEAUFORT       CLOUDY    69  64  84 S14       29.74F
CEDAR ISLAND     N/A     75 N/A N/A S18       29.77F
JACKSONVILLE   LGT RAIN  71  69  93 SW12G24   29.71F
NEWPORT          N/A     68  64  88 SW7G14      N/A
PINEY ISLAND   CLOUDY    75  63  66 SW16G31   29.73F
WILMINGTON     LGT RAIN  71  64  78 S18G26    29.72F


$$

NCZ011>013-027>030-043-044-078>080-089-090>093-098-152100-
COASTAL PLAIN

CITY           SKY/WX    TMP DP  RH WIND       PRES   REMARKS
AHOSKIE        CLOUDY    73  63  72 S10       29.63F
CLINTON        DRIZZLE   71  65  83 S9G18     29.63F
ELIZABETHTOWN  LGT RAIN  71  64  77 S12G17    29.64F
GOLDSBORO      CLOUDY    74  65  73 S17G23    29.62F
GREENVILLE     CLOUDY    73  63  68 S20G28    29.69F
HAVELOCK       LGT RAIN  70  64  81 SW13G22   29.74F
KENANSVILLE    LGT RAIN  72  62  71 S8        29.67F
KINSTON        CLOUDY    75  64  69 S16       29.69
NEW BERN       LGT RAIN  75  63  66 SW14G24   29.72F
RICHLANDS      CLOUDY    73  63  68 S20       29.70F
ROANOKE RAPIDS NOT AVBL
ROCKY MOUNT      N/A    N/A N/A N/A MISG      29.63F
WASHINGTON     CLOUDY    74  66  77 S15G22    29.69F
WHITEVILLE     CLOUDY    72  65  77 S15G21    29.66F

$$

AMZ130-135-150-152-154-156-158-170-250-252-270-ANZ085-086-088-633-658-670-152100-
MARINE OBSERVATIONS

STATION/POSITION TIME  TEMP    WIND        PRES    WAVE   SWELL
                       AIR SEA DIR/SP/G            HT/PER HT/PER
                 (UTC) (F)     (DEG/KT/KT) (MB)    (FT/S) (FT/S)
CHESAPEAKE LIGHT 1900   58     170/ 26/ 27 1004.7
BUOY 44014       2000   61 52  170/ 17/ 21 1006.1   11/ 9   7/ 9
DUCK             2000   69 48  180/ 18/ 23 1004.4
2E DUCK          2000      47                N/A     5/ 8
OREGON INLET     2000   69 70  190/ 21/ 25 1006.7
BUOY 44095       2000      65                N/A     8/ 8   2/11
HATTERAS CG      2000   69 65  190/  8/ 14 1007.9
DIAMOND BUOY     NOT AVBL
CAPE LOOKOUT     1900   69     200/ 12/ 13 1008.0
BEAUFORT LAB     2000   67 65  200/ 11/ 13 1006.3
30 SE NEW RIVER  2000   69 63  200/ 16/ 17 1007.5    8/ 8   5/ 8
5 SE WRIGHTSVILL 1900   65 62  220/ 16/ 17 1007.7
FRYING PAN BUOY  2000   67 66  210/ 16/ 19 1007.9    7/ 8   3/ 8
BUOY 41001       NOT AVBL
BUOY 41002       NOT AVBL
BUOY 41004       NOT AVBL

$$



USA.gov is the U.S. government's official web portal to all federal, state and local government web resources and services.